Weather History for KSKX - November, 2014

Change the Weather History Date:

Sunday, November 16, 2014

  Actual Average Record
Temperature  
Mean Temperature 20 °F -  
Max Temperature 32 °F 48 °F 69 °F (1999)
Min Temperature 8 °F 19 °F 3 °F (1997)
Degree Days  
Heating Degree Days 45    
Moisture  
Dew Point 18 °F    
Average Humidity 78    
Maximum Humidity 100    
Minimum Humidity 51    
Precipitation  
Precipitation 0.24 in - - ()
Sea Level Pressure  
Sea Level Pressure 29.99 in    
Wind  
Wind Speed 9 mph (NNW)    
Max Wind Speed 23 mph    
Max Gust Speed 29 mph    
Visibility 6 miles    
Events      
Averages and records for this station are not official NWS values.
T = Trace of Precipitation, MM = Missing Value Source: NWS Daily Summary

Daily Weather History Graph

Daily Weather History Graph

Search for Another Location

Airport or City:

Trip Planner

Search our weather history database for the weather conditions in past years. The results will help you decide how hot, cold, wet, or windy it might be!

Date:

Astronomy

Nov. 16, 2014 Rise Set
Actual Time 6:41 AM MST 4:53 PM MST
Civil Twilight 6:13 AM MST 5:20 PM MST
Nautical Twilight 5:42 AM MST 5:52 PM MST
Astronomical Twilight 5:11 AM MST 6:22 PM MST
Moon 12:59 AM MST (11/16) 1:39 PM MST (11/16)
Length of Visible Light 11h 07m
Length of Day
10h 12m
Waning Crescent, 30% of the Moon is Illuminated
Nov 16
Waning Crescent
Nov 22
New
Nov 29
First Quarter
Dec 6
Full
Dec 14
Last Quarter

Hourly Weather History & Observations

Time (MST) Temp. Windchill Dew Point Humidity Pressure Visibility Wind Dir Wind Speed Gust Speed Precip Events Conditions
12:15 AM 32.0 °F 25.6 °F 30.2 °F 93% 29.84 in 1.0 mi NW 6.9 mph - 0.01 in   Overcast
12:35 AM 32.0 °F 25.6 °F 28.4 °F 87% 29.84 in 1.5 mi NW 6.9 mph - 0.01 in   Overcast
12:55 AM 32.0 °F - 28.4 °F 87% 29.83 in 9.0 mi Calm Calm - 0.01 in   Overcast
1:15 AM 32.0 °F 25.6 °F 28.4 °F 87% 29.84 in 3.0 mi South 6.9 mph - 0.03 in   Mostly Cloudy
1:35 AM 32.0 °F 26.4 °F 28.4 °F 87% 29.84 in 1.5 mi South 5.8 mph - 0.07 in   Overcast
1:55 AM 32.0 °F 24.8 °F 28.4 °F 87% 29.83 in 10.0 mi SSW 8.1 mph - 0.09 in   Overcast
2:15 AM 32.0 °F 24.2 °F 28.4 °F 87% 29.81 in 10.0 mi SW 9.2 mph - 0.03 in   Overcast
2:35 AM 32.0 °F 23.6 °F 28.4 °F 87% 29.81 in 10.0 mi SW 10.4 mph - 0.05 in   Overcast
2:55 AM 32.0 °F 23.0 °F 28.4 °F 87% 29.81 in 10.0 mi SW 11.5 mph - 0.06 in   Overcast
3:15 AM 32.0 °F 24.2 °F 28.4 °F 87% 29.81 in 5.0 mi WSW 9.2 mph - 0.02 in   Overcast
3:35 AM 32.0 °F 22.5 °F 28.4 °F 87% 29.81 in 3.0 mi SW 12.7 mph - 0.03 in   Overcast
3:55 AM 32.0 °F 23.0 °F 28.4 °F 87% 29.81 in 1.8 mi WSW 11.5 mph - 0.04 in   Overcast
4:15 AM 32.0 °F 22.5 °F 28.4 °F 87% 29.80 in 2.0 mi NW 12.7 mph 17.3 mph 0.01 in   Overcast
4:35 AM 28.4 °F 15.1 °F 23.0 °F 80% 29.81 in 2.5 mi North 20.7 mph 28.8 mph 0.01 in   Overcast
4:55 AM 26.6 °F 12.4 °F 23.0 °F 86% 29.83 in 1.0 mi North 21.9 mph 27.6 mph 0.01 in   Overcast
5:15 AM 26.6 °F 13.4 °F 23.0 °F 86% 29.86 in 2.0 mi NNW 18.4 mph 21.9 mph N/A   Overcast
5:35 AM 26.6 °F 16.2 °F 21.2 °F 80% 29.85 in 1.5 mi North 11.5 mph - N/A   Overcast
5:55 AM 26.6 °F 21.2 °F 21.2 °F 80% 29.83 in 10.0 mi North 4.6 mph - N/A   Overcast
6:15 AM 26.6 °F 22.6 °F 21.2 °F 80% 29.83 in 10.0 mi East 3.5 mph - N/A   Overcast
6:35 AM 24.8 °F 20.5 °F 19.4 °F 80% 29.87 in 10.0 mi NW 3.5 mph - N/A   Overcast
6:55 AM 24.8 °F 19.1 °F 19.4 °F 80% 29.87 in 8.0 mi North 4.6 mph - N/A   Overcast
7:15 AM 24.8 °F - 19.4 °F 80% 29.89 in 1.5 mi Calm Calm - N/A   Overcast
7:35 AM 24.8 °F 14.6 °F 19.4 °F 80% 29.87 in 1.8 mi ENE 10.4 mph - N/A   Overcast
7:55 AM 23.0 °F 15.8 °F 17.6 °F 80% 29.89 in 3.0 mi SE 5.8 mph - N/A   Overcast
8:15 AM 23.0 °F 15.8 °F 19.4 °F 86% 29.90 in 5.0 mi SSE 5.8 mph - N/A   Overcast
8:35 AM 23.0 °F 18.4 °F 19.4 °F 86% 29.91 in 10.0 mi ENE 3.5 mph - 0.01 in   Overcast
8:55 AM 24.8 °F 19.1 °F 19.4 °F 80% 29.92 in 6.0 mi North 4.6 mph - 0.02 in   Overcast
9:15 AM 24.8 °F 17.9 °F 21.2 °F 86% 29.93 in 1.2 mi North 5.8 mph - N/A   Overcast
9:35 AM 26.6 °F 19.1 °F 21.2 °F 80% 29.96 in 0.5 mi North 6.9 mph - N/A   Overcast
9:55 AM 26.6 °F 19.1 °F 21.2 °F 80% 29.97 in 0.5 mi North 6.9 mph - N/A   Overcast
10:15 AM 26.6 °F 14.3 °F 21.2 °F 80% 29.98 in 3.0 mi North 16.1 mph 20.7 mph N/A   Overcast
10:35 AM 26.6 °F 12.0 °F 19.4 °F 74% 29.97 in 10.0 mi North 23.0 mph - N/A   Overcast
10:55 AM 26.6 °F 12.7 °F 19.4 °F 74% 29.98 in 10.0 mi North 20.7 mph 24.2 mph N/A   Overcast
11:15 AM 26.6 °F 12.7 °F 17.6 °F 69% 29.98 in 10.0 mi North 20.7 mph 26.5 mph N/A   Overcast
11:35 AM 26.6 °F 13.4 °F 15.8 °F 64% 29.98 in 10.0 mi North 18.4 mph 24.2 mph N/A   Overcast
11:55 AM 26.6 °F 13.1 °F 15.8 °F 64% 29.98 in 10.0 mi North 19.6 mph 26.5 mph N/A   Mostly Cloudy
12:15 PM 28.4 °F 15.4 °F 17.6 °F 64% 29.98 in 10.0 mi North 19.6 mph 24.2 mph N/A   Clear
12:35 PM 28.4 °F 15.8 °F 17.6 °F 64% 29.98 in 10.0 mi North 18.4 mph 25.3 mph N/A   Clear
12:55 PM 28.4 °F 15.4 °F 17.6 °F 64% 29.98 in 10.0 mi North 19.6 mph 24.2 mph N/A   Clear
1:15 PM 28.4 °F 17.0 °F 17.6 °F 64% 29.99 in 10.0 mi North 15.0 mph 24.2 mph N/A   Clear
1:35 PM 28.4 °F 16.6 °F 17.6 °F 64% 29.99 in 10.0 mi North 16.1 mph - N/A   Clear
1:55 PM 28.4 °F 15.8 °F 15.8 °F 59% 29.98 in 10.0 mi North 18.4 mph - 0.01 in   Clear
2:15 PM 30.2 °F 20.8 °F 17.6 °F 60% 30.00 in 10.0 mi NNE 11.5 mph - N/A   Clear
2:35 PM 30.2 °F 20.8 °F 15.8 °F 55% 30.01 in 10.0 mi North 11.5 mph - N/A   Clear
2:55 PM 30.2 °F 20.8 °F 15.8 °F 55% 30.02 in 10.0 mi North 11.5 mph - N/A   Clear
3:15 PM 30.2 °F 20.2 °F 15.8 °F 55% 30.03 in 10.0 mi North 12.7 mph - N/A   Clear
3:35 PM 28.4 °F 18.0 °F 14.0 °F 55% 30.04 in 10.0 mi NNW 12.7 mph - N/A   Clear
3:55 PM 28.4 °F 20.4 °F 14.0 °F 55% 30.05 in 10.0 mi North 8.1 mph - N/A   Clear
4:15 PM 28.4 °F 19.7 °F 12.2 °F 51% 30.06 in 10.0 mi NNW 9.2 mph - N/A   Clear
4:35 PM 26.6 °F - 14.0 °F 59% 30.07 in 10.0 mi Calm Calm - N/A   Clear
4:55 PM 26.6 °F 18.2 °F 10.4 °F 51% 30.08 in 10.0 mi SW 8.1 mph - N/A   Clear
5:15 PM 21.2 °F 10.9 °F 12.2 °F 68% 30.09 in 10.0 mi WSW 9.2 mph - N/A   Clear
5:35 PM 19.4 °F 7.9 °F 14.0 °F 80% 30.10 in 10.0 mi SW 10.4 mph - N/A   Clear
5:55 PM 21.2 °F 12.6 °F 17.6 °F 86% 30.11 in 10.0 mi SW 6.9 mph - N/A   Clear
6:15 PM 19.4 °F 11.5 °F 15.8 °F 86% 30.12 in 10.0 mi WSW 5.8 mph - N/A   Clear
6:35 PM 19.4 °F 14.3 °F 15.8 °F 86% 30.12 in 10.0 mi West 3.5 mph - N/A   Clear
6:55 PM 17.6 °F 10.7 °F 12.2 °F 79% 30.13 in 9.0 mi NE 4.6 mph - N/A   Clear
7:15 PM 14.0 °F - 8.6 °F 79% 30.13 in 10.0 mi Calm Calm - N/A   Clear
7:35 PM 15.8 °F - 10.4 °F 79% 30.14 in 10.0 mi Calm Calm - N/A   Clear
7:55 PM 17.6 °F - 15.8 °F 93% 30.15 in 1.5 mi Calm Calm - N/A   Clear
8:15 PM 14.0 °F 8.2 °F 10.4 °F 86% 30.16 in 10.0 mi SW 3.5 mph - N/A   Clear
8:35 PM 15.8 °F - 15.8 °F 100% 30.17 in 6.0 mi Calm Calm - N/A   Clear
8:55 PM 15.8 °F - 12.2 °F 86% 30.18 in 7.0 mi Calm Calm - N/A   Partly Cloudy
9:15 PM 10.4 °F - 8.6 °F 92% 30.19 in 5.0 mi Calm Calm - N/A   Clear
9:35 PM 10.4 °F - 8.6 °F 92% 30.20 in 3.0 mi Calm Calm - N/A   Mostly Cloudy
9:55 PM 10.4 °F - 6.8 °F 85% 30.19 in 0.2 mi Calm Calm - N/A   Overcast
10:15 PM 12.2 °F - 8.6 °F 85% 30.20 in 0.2 mi Calm Calm - N/A   Overcast
10:35 PM 8.6 °F - 6.8 °F 92% 30.21 in 0.2 mi Calm Calm - N/A   Overcast
10:55 PM 10.4 °F 4.0 °F 6.8 °F 85% 30.21 in 0.5 mi North 3.5 mph - N/A   Mostly Cloudy
11:15 PM 10.4 °F - 8.6 °F 92% 30.20 in 0.2 mi Calm Calm - N/A   Unknown
11:35 PM 8.6 °F - 6.8 °F 92% 30.21 in 0.8 mi Calm Calm - N/A   Mostly Cloudy
11:55 PM 8.6 °F 2.0 °F 6.8 °F 92% 30.21 in 10.0 mi North 3.5 mph - N/A   Clear